contact:dominique.lefevre@mio.osupytheas.fr, maurice.libes@osupytheas.fr, didier.mallarino@osupytheas.fr
Project:EMSO http://www.emso-fr.org/EMSO-France
Depth: 2436.0 m
Title:EMSO Ligure Ouest : Data MII capteur MICROCAT
DateTime_Computer,Latitude,Longitude,Temperature,Conductivity,Pressure,DateTime_Instrument
DateTime_Computer,Latitude,Longitude,degC,S m-1,dbar,DateTime_Instrument
2019-11-16T00:02:48Z,42.805,6.029,13.2964,4.59964,2470.017,2019-11-16T02:03:16Z
2019-11-16T00:05:52Z,42.805,6.029,13.2960,4.59968,2469.993,2019-11-16T02:06:20Z
2019-11-16T00:08:55Z,42.805,6.029,13.2961,4.59964,2470.017,2019-11-16T02:09:23Z
2019-11-16T00:11:58Z,42.805,6.029,13.2962,4.59965,2470.017,2019-11-16T02:12:26Z
2019-11-16T00:15:01Z,42.805,6.029,13.2959,4.59963,2470.007,2019-11-16T02:15:29Z
2019-11-16T00:18:05Z,42.805,6.029,13.2961,4.59967,2470.03,2019-11-16T02:18:32Z
2019-11-16T00:21:08Z,42.805,6.029,13.2960,4.59964,2469.993,2019-11-16T02:21:36Z
2019-11-16T00:24:11Z,42.805,6.029,13.2964,4.59964,2469.947,2019-11-16T02:24:39Z
2019-11-16T00:27:14Z,42.805,6.029,13.2961,4.59964,2470.03,2019-11-16T02:27:42Z
2019-11-16T00:30:17Z,42.805,6.029,13.2960,4.59964,2470.017,2019-11-16T02:30:45Z
2019-11-16T00:33:21Z,42.805,6.029,13.2962,4.59964,2470.017,2019-11-16T02:33:49Z
2019-11-16T00:36:24Z,42.805,6.029,13.2963,4.59966,2469.993,2019-11-16T02:36:52Z
2019-11-16T00:39:28Z,42.805,6.029,13.2961,4.59964,2469.993,2019-11-16T02:39:55Z
2019-11-16T00:42:31Z,42.805,6.029,13.2961,4.59966,2470.017,2019-11-16T02:42:59Z
2019-11-16T00:45:34Z,42.805,6.029,13.2964,4.59968,2469.97,2019-11-16T02:46:02Z
2019-11-16T00:48:37Z,42.805,6.029,13.2962,4.59967,2469.993,2019-11-16T02:49:05Z
2019-11-16T00:51:41Z,42.805,6.029,13.2961,4.59963,2469.97,2019-11-16T02:52:08Z
2019-11-16T00:54:44Z,42.805,6.029,13.2964,4.59966,2469.984,2019-11-16T02:55:12Z
2019-11-16T00:57:47Z,42.805,6.029,13.2961,4.59971,2469.97,2019-11-16T02:58:15Z
2019-11-16T01:00:50Z,42.805,6.029,13.2958,4.59968,2469.993,2019-11-16T03:01:18Z
2019-11-16T01:03:53Z,42.805,6.029,13.2965,4.59963,2469.96,2019-11-16T03:04:21Z
2019-11-16T01:06:57Z,42.805,6.029,13.2960,4.59966,2470.03,2019-11-16T03:07:24Z
2019-11-16T01:10:00Z,42.805,6.029,13.2962,4.59969,2469.947,2019-11-16T03:10:28Z
2019-11-16T01:13:03Z,42.805,6.029,13.2961,4.59968,2470.007,2019-11-16T03:13:31Z
2019-11-16T01:16:06Z,42.805,6.029,13.2966,4.59969,2469.984,2019-11-16T03:16:34Z
2019-11-16T01:19:10Z,42.805,6.029,13.2961,4.59964,2470.017,2019-11-16T03:19:37Z
2019-11-16T01:22:13Z,42.805,6.029,13.2966,4.59963,2469.984,2019-11-16T03:22:41Z
2019-11-16T01:25:16Z,42.805,6.029,13.2961,4.59964,2469.97,2019-11-16T03:25:44Z
2019-11-16T01:28:19Z,42.805,6.029,13.2958,4.59966,2470.03,2019-11-16T03:28:47Z
2019-11-16T01:31:22Z,42.805,6.029,13.2963,4.59967,2469.947,2019-11-16T03:31:50Z
2019-11-16T01:34:26Z,42.805,6.029,13.2960,4.59965,2469.97,2019-11-16T03:34:53Z
2019-11-16T01:37:29Z,42.805,6.029,13.2964,4.59964,2469.96,2019-11-16T03:37:57Z
2019-11-16T01:40:32Z,42.805,6.029,13.2959,4.59962,2469.984,2019-11-16T03:41:00Z
2019-11-16T01:43:35Z,42.805,6.029,13.2960,4.59961,2469.984,2019-11-16T03:44:03Z
2019-11-16T01:46:39Z,42.805,6.029,13.2963,4.59961,2469.984,2019-11-16T03:47:06Z
2019-11-16T01:49:42Z,42.805,6.029,13.2961,4.59962,2469.96,2019-11-16T03:50:10Z
2019-11-16T01:52:45Z,42.805,6.029,13.2957,4.59968,2469.947,2019-11-16T03:53:13Z
2019-11-16T01:55:48Z,42.805,6.029,13.2961,4.59963,2469.97,2019-11-16T03:56:16Z
2019-11-16T01:58:51Z,42.805,6.029,13.2964,4.59961,2469.96,2019-11-16T03:59:19Z
2019-11-16T02:01:55Z,42.805,6.029,13.2960,4.59961,2469.984,2019-11-16T04:02:22Z
2019-11-16T02:04:58Z,42.805,6.029,13.2963,4.59964,2469.97,2019-11-16T04:05:26Z
2019-11-16T02:08:01Z,42.805,6.029,13.2964,4.59962,2469.947,2019-11-16T04:08:29Z
2019-11-16T02:11:04Z,42.805,6.029,13.2960,4.59963,2469.97,2019-11-16T04:11:32Z
2019-11-16T02:14:07Z,42.805,6.029,13.2963,4.59961,2469.96,2019-11-16T04:14:35Z
2019-11-16T02:17:11Z,42.805,6.029,13.2961,4.59962,2469.984,2019-11-16T04:17:38Z
2019-11-16T02:20:14Z,42.805,6.029,13.2958,4.59961,2469.96,2019-11-16T04:20:42Z
2019-11-16T02:23:17Z,42.805,6.029,13.2963,4.59966,2469.96,2019-11-16T04:23:45Z
2019-11-16T02:26:20Z,42.805,6.029,13.2961,4.59964,2469.97,2019-11-16T04:26:48Z
2019-11-16T02:29:24Z,42.805,6.029,13.2964,4.59963,2469.96,2019-11-16T04:29:51Z
2019-11-16T02:32:27Z,42.805,6.029,13.2962,4.59964,2469.96,2019-11-16T04:32:55Z
2019-11-16T02:35:30Z,42.805,6.029,13.2957,4.59967,2469.947,2019-11-16T04:35:58Z
2019-11-16T02:38:33Z,42.805,6.029,13.2966,4.59963,2469.97,2019-11-16T04:39:01Z
2019-11-16T02:41:37Z,42.805,6.029,13.2961,4.59968,2469.947,2019-11-16T04:42:04Z
2019-11-16T02:44:40Z,42.805,6.029,13.2962,4.59968,2469.937,2019-11-16T04:45:08Z
2019-11-16T02:47:43Z,42.805,6.029,13.2965,4.59966,2469.97,2019-11-16T04:48:11Z
2019-11-16T02:50:46Z,42.805,6.029,13.2964,4.59967,2469.96,2019-11-16T04:51:14Z
2019-11-16T02:53:49Z,42.805,6.029,13.2962,4.59972,2469.96,2019-11-16T04:54:17Z
2019-11-16T02:56:53Z,42.805,6.029,13.2966,4.59962,2469.947,2019-11-16T04:57:20Z
2019-11-16T02:59:56Z,42.805,6.029,13.2964,4.59967,2469.947,2019-11-16T05:00:24Z
2019-11-16T03:02:59Z,42.805,6.029,13.2962,4.59962,2469.947,2019-11-16T05:03:27Z
2019-11-16T03:06:02Z,42.805,6.029,13.2964,4.59962,2469.947,2019-11-16T05:06:30Z
2019-11-16T03:09:05Z,42.805,6.029,13.2962,4.59964,2469.947,2019-11-16T05:09:33Z
2019-11-16T03:12:09Z,42.805,6.029,13.2967,4.59962,2469.923,2019-11-16T05:12:36Z
2019-11-16T03:15:12Z,42.805,6.029,13.2959,4.59966,2469.947,2019-11-16T05:15:40Z
2019-11-16T03:18:15Z,42.805,6.029,13.2960,4.59968,2469.923,2019-11-16T05:18:43Z
2019-11-16T03:21:18Z,42.805,6.029,13.2966,4.59966,2469.956,2019-11-16T05:21:46Z
2019-11-16T03:24:21Z,42.805,6.029,13.2964,4.59966,2469.947,2019-11-16T05:24:49Z
2019-11-16T03:27:25Z,42.805,6.029,13.2972,4.59966,2469.923,2019-11-16T05:27:53Z
2019-11-16T03:30:28Z,42.805,6.029,13.2971,4.59964,2469.96,2019-11-16T05:30:56Z
2019-11-16T03:33:31Z,42.805,6.029,13.2964,4.59965,2469.96,2019-11-16T05:33:59Z
2019-11-16T03:36:35Z,42.805,6.029,13.2962,4.59971,2469.923,2019-11-16T05:37:02Z
2019-11-16T03:39:38Z,42.805,6.029,13.2960,4.59966,2469.947,2019-11-16T05:40:06Z
2019-11-16T03:42:41Z,42.805,6.029,13.2960,4.59964,2469.947,2019-11-16T05:43:09Z
2019-11-16T03:45:44Z,42.805,6.029,13.2966,4.59964,2469.96,2019-11-16T05:46:12Z
2019-11-16T03:48:47Z,42.805,6.029,13.2963,4.59969,2469.96,2019-11-16T05:49:15Z
2019-11-16T03:51:51Z,42.805,6.029,13.2964,4.59969,2469.96,2019-11-16T05:52:18Z
2019-11-16T03:54:54Z,42.805,6.029,13.2967,4.59971,2469.96,2019-11-16T05:55:22Z
2019-11-16T03:57:57Z,42.805,6.029,13.2962,4.59967,2469.96,2019-11-16T05:58:25Z
2019-11-16T04:01:00Z,42.805,6.029,13.2966,4.59967,2469.923,2019-11-16T06:01:28Z
2019-11-16T04:04:04Z,42.805,6.029,13.2963,4.59966,2469.984,2019-11-16T06:04:31Z
2019-11-16T04:07:07Z,42.805,6.029,13.2963,4.59966,2469.947,2019-11-16T06:07:35Z
2019-11-16T04:10:10Z,42.805,6.029,13.2961,4.59966,2469.97,2019-11-16T06:10:38Z
2019-11-16T04:13:13Z,42.805,6.029,13.2964,4.59965,2469.947,2019-11-16T06:13:41Z
2019-11-16T04:16:17Z,42.805,6.029,13.2963,4.59964,2469.97,2019-11-16T06:16:44Z
2019-11-16T04:19:20Z,42.805,6.029,13.2967,4.59965,2469.947,2019-11-16T06:19:48Z
2019-11-16T04:22:23Z,42.805,6.029,13.2970,4.59963,2469.947,2019-11-16T06:22:51Z
2019-11-16T04:25:26Z,42.805,6.029,13.2968,4.59963,2469.96,2019-11-16T06:25:54Z
2019-11-16T04:28:29Z,42.805,6.029,13.2961,4.59966,2469.923,2019-11-16T06:28:57Z
2019-11-16T04:31:33Z,42.805,6.029,13.2958,4.59966,2469.96,2019-11-16T06:32:00Z
2019-11-16T04:34:36Z,42.805,6.029,13.2965,4.59963,2469.97,2019-11-16T06:35:04Z
2019-11-16T04:37:39Z,42.805,6.029,13.2961,4.59964,2469.96,2019-11-16T06:38:07Z
2019-11-16T04:40:43Z,42.805,6.029,13.2957,4.59964,2469.993,2019-11-16T06:41:11Z
2019-11-16T04:43:46Z,42.805,6.029,13.2957,4.59986,2469.947,2019-11-16T06:44:14Z
2019-11-16T04:46:49Z,42.805,6.029,13.2964,4.59975,2469.947,2019-11-16T06:47:17Z
2019-11-16T04:49:52Z,42.805,6.029,13.2962,4.59966,2469.947,2019-11-16T06:50:20Z
2019-11-16T04:52:55Z,42.805,6.029,13.2964,4.59963,2469.984,2019-11-16T06:53:23Z
2019-11-16T04:55:59Z,42.805,6.029,13.2959,4.59966,2469.984,2019-11-16T06:56:27Z
2019-11-16T04:59:02Z,42.805,6.029,13.2959,4.59970,2469.97,2019-11-16T06:59:30Z
2019-11-16T05:02:05Z,42.805,6.029,13.2960,4.59966,2469.984,2019-11-16T07:02:33Z
2019-11-16T05:05:08Z,42.805,6.029,13.2961,4.59969,2469.984,2019-11-16T07:05:36Z
2019-11-16T05:08:12Z,42.805,6.029,13.2959,4.59971,2469.947,2019-11-16T07:08:39Z
2019-11-16T05:11:15Z,42.805,6.029,13.2964,4.59970,2469.993,2019-11-16T07:11:43Z
2019-11-16T05:14:18Z,42.805,6.029,13.2960,4.59970,2469.97,2019-11-16T07:14:46Z
2019-11-16T05:17:21Z,42.805,6.029,13.2964,4.59971,2469.984,2019-11-16T07:17:49Z
2019-11-16T05:20:24Z,42.805,6.029,13.2963,4.59979,2469.97,2019-11-16T07:20:52Z
2019-11-16T05:23:28Z,42.805,6.029,13.2964,4.59970,2469.993,2019-11-16T07:23:55Z
2019-11-16T05:26:31Z,42.805,6.029,13.2962,4.59969,2470.007,2019-11-16T07:26:59Z
2019-11-16T05:29:34Z,42.805,6.029,13.2961,4.59971,2470.017,2019-11-16T07:30:02Z
2019-11-16T05:32:37Z,42.805,6.029,13.2959,4.59968,2469.97,2019-11-16T07:33:05Z
2019-11-16T05:35:40Z,42.805,6.029,13.2962,4.59986,2470.017,2019-11-16T07:36:08Z
2019-11-16T05:38:44Z,42.805,6.029,13.2961,4.59984,2469.97,2019-11-16T07:39:12Z
2019-11-16T05:41:47Z,42.805,6.029,13.2961,4.59990,2470.053,2019-11-16T07:42:15Z
2019-11-16T05:44:50Z,42.805,6.029,13.2961,4.59999,2470.03,2019-11-16T07:45:18Z
2019-11-16T05:47:53Z,42.805,6.029,13.2965,4.59973,2470.017,2019-11-16T07:48:21Z
2019-11-16T05:50:57Z,42.805,6.029,13.2963,4.59996,2470.017,2019-11-16T07:51:24Z
2019-11-16T05:54:00Z,42.805,6.029,13.3072,4.59971,2470.03,2019-11-16T07:54:28Z
2019-11-16T05:57:03Z,42.805,6.029,13.3045,4.59970,2470.017,2019-11-16T07:57:31Z
2019-11-16T06:00:06Z,42.805,6.029,13.2993,4.59981,2470.007,2019-11-16T08:00:34Z
2019-11-16T06:03:09Z,42.805,6.029,13.3014,4.59973,2469.993,2019-11-16T08:03:37Z
2019-11-16T06:06:13Z,42.805,6.029,13.3014,4.59974,2470.04,2019-11-16T08:06:40Z
2019-11-16T06:09:16Z,42.805,6.029,13.3005,4.59988,2470.017,2019-11-16T08:09:44Z
2019-11-16T06:12:19Z,42.805,6.029,13.2996,4.59994,2470.017,2019-11-16T08:12:47Z
2019-11-16T06:15:22Z,42.805,6.029,13.3024,4.59997,2470.053,2019-11-16T08:15:50Z
2019-11-16T06:18:25Z,42.805,6.029,13.3041,4.59982,2470.03,2019-11-16T08:18:53Z
2019-11-16T06:21:28Z,42.805,6.029,13.3046,4.59973,2469.993,2019-11-16T08:21:56Z
2019-11-16T06:24:32Z,42.805,6.029,13.3057,4.59986,2470.03,2019-11-16T08:25:00Z
2019-11-16T06:27:35Z,42.805,6.029,13.3042,4.60023,2470.053,2019-11-16T08:28:03Z
2019-11-16T06:30:38Z,42.805,6.029,13.3019,4.60022,2470.04,2019-11-16T08:31:06Z
2019-11-16T06:33:41Z,42.805,6.029,13.3014,4.60030,2470.04,2019-11-16T08:34:09Z
2019-11-16T06:36:45Z,42.805,6.029,13.3013,4.60033,2470.017,2019-11-16T08:37:12Z
2019-11-16T06:39:48Z,42.805,6.029,13.3032,4.60022,2470.077,2019-11-16T08:40:16Z
2019-11-16T06:42:51Z,42.805,6.029,13.3035,4.60033,2470.077,2019-11-16T08:43:19Z
2019-11-16T06:45:54Z,42.805,6.029,13.2997,4.60043,2470.077,2019-11-16T08:46:22Z
2019-11-16T06:48:58Z,42.805,6.029,13.2979,4.60024,2470.077,2019-11-16T08:49:25Z
2019-11-16T06:52:01Z,42.805,6.029,13.2999,4.60016,2470.1,2019-11-16T08:52:29Z
2019-11-16T06:55:04Z,42.805,6.029,13.3000,4.60029,2470.077,2019-11-16T08:55:32Z
2019-11-16T06:58:08Z,42.805,6.029,13.2984,4.60038,2470.063,2019-11-16T08:58:35Z
2019-11-16T07:01:11Z,42.805,6.029,13.2996,4.60046,2470.077,2019-11-16T09:01:39Z
2019-11-16T07:04:14Z,42.805,6.029,13.3025,4.60000,2470.087,2019-11-16T09:04:42Z
2019-11-16T07:07:17Z,42.805,6.029,13.3014,4.60028,2470.087,2019-11-16T09:07:45Z
2019-11-16T07:10:20Z,42.805,6.029,13.2984,4.60069,2470.1,2019-11-16T09:10:48Z
2019-11-16T07:13:24Z,42.805,6.029,13.3002,4.60023,2470.063,2019-11-16T09:13:51Z
2019-11-16T07:16:27Z,42.805,6.029,13.3009,4.60038,2470.077,2019-11-16T09:16:55Z
2019-11-16T07:19:30Z,42.805,6.029,13.2985,4.60040,2470.124,2019-11-16T09:19:58Z
2019-11-16T07:22:33Z,42.805,6.029,13.2979,4.60087,2470.1,2019-11-16T09:23:01Z
2019-11-16T07:25:36Z,42.805,6.029,13.2994,4.60032,2470.11,2019-11-16T09:26:04Z
2019-11-16T07:28:40Z,42.805,6.029,13.3003,4.60026,2470.11,2019-11-16T09:29:07Z
2019-11-16T07:31:43Z,42.805,6.029,13.3014,4.60077,2470.124,2019-11-16T09:32:11Z
2019-11-16T07:34:46Z,42.805,6.029,13.3024,4.60084,2470.124,2019-11-16T09:35:14Z
2019-11-16T07:37:49Z,42.805,6.029,13.3046,4.60044,2470.087,2019-11-16T09:38:17Z
2019-11-16T07:40:52Z,42.805,6.029,13.3034,4.60050,2470.114,2019-11-16T09:41:20Z
2019-11-16T07:43:56Z,42.805,6.029,13.3019,4.60046,2470.147,2019-11-16T09:44:23Z
2019-11-16T07:46:59Z,42.805,6.029,13.3025,4.60062,2470.133,2019-11-16T09:47:27Z
2019-11-16T07:50:02Z,42.805,6.029,13.3051,4.60074,2470.147,2019-11-16T09:50:30Z
2019-11-16T07:53:05Z,42.805,6.029,13.3036,4.60033,2470.147,2019-11-16T09:53:33Z
2019-11-16T07:56:09Z,42.805,6.029,13.3066,4.60006,2470.171,2019-11-16T09:56:36Z
2019-11-16T07:59:12Z,42.805,6.029,13.3049,4.60031,2470.147,2019-11-16T09:59:40Z
2019-11-16T08:02:15Z,42.805,6.029,13.3013,4.60035,2470.147,2019-11-16T10:02:43Z
2019-11-16T08:05:18Z,42.805,6.029,13.3034,4.59999,2470.147,2019-11-16T10:05:46Z
2019-11-16T08:08:21Z,42.805,6.029,13.3022,4.60024,2470.156,2019-11-16T10:08:49Z
2019-11-16T08:11:25Z,42.805,6.029,13.3020,4.60003,2470.147,2019-11-16T10:11:52Z
2019-11-16T08:14:28Z,42.805,6.029,13.3009,4.59996,2470.133,2019-11-16T10:14:56Z
2019-11-16T08:17:31Z,42.805,6.029,13.3009,4.60033,2470.147,2019-11-16T10:17:59Z
2019-11-16T08:20:34Z,42.805,6.029,13.3004,4.59988,2470.124,2019-11-16T10:21:02Z
2019-11-16T08:23:37Z,42.805,6.029,13.2998,4.59991,2470.171,2019-11-16T10:24:05Z
2019-11-16T08:26:41Z,42.805,6.029,13.2993,4.60015,2470.147,2019-11-16T10:27:08Z
2019-11-16T08:29:44Z,42.805,6.029,13.2997,4.59992,2470.171,2019-11-16T10:30:12Z
2019-11-16T08:32:47Z,42.805,6.029,13.3016,4.60024,2470.133,2019-11-16T10:33:15Z
2019-11-16T08:35:50Z,42.805,6.029,13.3006,4.60023,2470.156,2019-11-16T10:36:18Z
2019-11-16T08:38:53Z,42.805,6.029,13.3005,4.60000,2470.147,2019-11-16T10:39:21Z
2019-11-16T08:41:57Z,42.805,6.029,13.3044,4.59987,2470.171,2019-11-16T10:42:24Z
2019-11-16T08:45:00Z,42.805,6.029,13.2982,4.60021,2470.133,2019-11-16T10:45:28Z
2019-11-16T08:48:03Z,42.805,6.029,13.3027,4.60014,2470.194,2019-11-16T10:48:31Z
2019-11-16T08:51:06Z,42.805,6.029,13.3011,4.60007,2470.203,2019-11-16T10:51:34Z
2019-11-16T08:54:09Z,42.805,6.029,13.2999,4.60015,2470.133,2019-11-16T10:54:37Z
2019-11-16T08:57:13Z,42.805,6.029,13.2998,4.60025,2470.171,2019-11-16T10:57:40Z
2019-11-16T09:00:16Z,42.805,6.029,13.2982,4.59992,2470.18,2019-11-16T11:00:44Z
2019-11-16T09:03:19Z,42.805,6.029,13.2993,4.60039,2470.217,2019-11-16T11:03:47Z
2019-11-16T09:06:22Z,42.805,6.029,13.2991,4.59988,2470.18,2019-11-16T11:06:50Z
2019-11-16T09:09:25Z,42.805,6.029,13.3023,4.59998,2470.171,2019-11-16T11:09:53Z
2019-11-16T09:12:29Z,42.805,6.029,13.3014,4.59991,2470.194,2019-11-16T11:12:56Z
2019-11-16T09:15:32Z,42.805,6.029,13.3012,4.60002,2470.156,2019-11-16T11:16:00Z
2019-11-16T09:18:35Z,42.805,6.029,13.2999,4.59991,2470.194,2019-11-16T11:19:03Z
2019-11-16T09:21:38Z,42.805,6.029,13.2993,4.59996,2470.171,2019-11-16T11:22:06Z
2019-11-16T09:24:41Z,42.805,6.029,13.3004,4.60001,2470.18,2019-11-16T11:25:09Z
2019-11-16T09:27:45Z,42.805,6.029,13.3024,4.59998,2470.156,2019-11-16T11:28:12Z
2019-11-16T09:30:48Z,42.805,6.029,13.2999,4.59983,2470.133,2019-11-16T11:31:16Z
2019-11-16T09:33:51Z,42.805,6.029,13.3006,4.59984,2470.194,2019-11-16T11:34:19Z
2019-11-16T09:36:54Z,42.805,6.029,13.3003,4.59994,2470.194,2019-11-16T11:37:22Z
2019-11-16T09:39:57Z,42.805,6.029,13.3026,4.60001,2470.156,2019-11-16T11:40:25Z
2019-11-16T09:43:01Z,42.805,6.029,13.3018,4.59994,2470.171,2019-11-16T11:43:28Z
2019-11-16T09:46:04Z,42.805,6.029,13.3006,4.60002,2470.18,2019-11-16T11:46:32Z
2019-11-16T09:49:07Z,42.805,6.029,13.3010,4.59996,2470.156,2019-11-16T11:49:35Z
2019-11-16T09:52:10Z,42.805,6.029,13.3025,4.59995,2470.217,2019-11-16T11:52:38Z
2019-11-16T09:55:14Z,42.805,6.029,13.2998,4.60013,2470.171,2019-11-16T11:55:41Z
2019-11-16T09:58:17Z,42.805,6.029,13.2998,4.59999,2470.133,2019-11-16T11:58:45Z
2019-11-16T10:01:20Z,42.805,6.029,13.2999,4.59996,2470.156,2019-11-16T12:01:48Z
2019-11-16T10:04:23Z,42.805,6.029,13.3019,4.59999,2470.147,2019-11-16T12:04:51Z
2019-11-16T10:07:26Z,42.805,6.029,13.3009,4.60000,2470.18,2019-11-16T12:07:54Z
2019-11-16T10:10:29Z,42.805,6.029,13.3011,4.60000,2470.147,2019-11-16T12:10:57Z
2019-11-16T10:13:33Z,42.805,6.029,13.2993,4.60003,2470.156,2019-11-16T12:14:01Z
2019-11-16T10:16:36Z,42.805,6.029,13.3013,4.59992,2470.156,2019-11-16T12:17:04Z
2019-11-16T10:19:39Z,42.805,6.029,13.3015,4.59992,2470.171,2019-11-16T12:20:07Z
2019-11-16T10:22:42Z,42.805,6.029,13.2998,4.59996,2470.156,2019-11-16T12:23:10Z
2019-11-16T10:25:45Z,42.805,6.029,13.2998,4.59994,2470.156,2019-11-16T12:26:13Z
2019-11-16T10:28:49Z,42.805,6.029,13.3005,4.59991,2470.133,2019-11-16T12:29:17Z
2019-11-16T10:31:52Z,42.805,6.029,13.3000,4.60003,2470.18,2019-11-16T12:32:20Z
2019-11-16T10:34:55Z,42.805,6.029,13.2999,4.59999,2470.161,2019-11-16T12:35:23Z
2019-11-16T10:37:58Z,42.805,6.029,13.2998,4.60003,2470.133,2019-11-16T12:38:26Z
2019-11-16T10:41:01Z,42.805,6.029,13.3019,4.60001,2470.156,2019-11-16T12:41:29Z
2019-11-16T10:44:05Z,42.805,6.029,13.3014,4.59999,2470.133,2019-11-16T12:44:33Z
2019-11-16T10:47:08Z,42.805,6.029,13.3005,4.60006,2470.171,2019-11-16T12:47:36Z
2019-11-16T10:50:11Z,42.805,6.029,13.3005,4.59993,2470.133,2019-11-16T12:50:39Z
2019-11-16T10:53:14Z,42.805,6.029,13.2998,4.59995,2470.133,2019-11-16T12:53:42Z
2019-11-16T10:56:17Z,42.805,6.029,13.3016,4.60009,2470.147,2019-11-16T12:56:45Z
2019-11-16T10:59:21Z,42.805,6.029,13.3004,4.60008,2470.147,2019-11-16T12:59:49Z
2019-11-16T11:02:24Z,42.805,6.029,13.3032,4.60001,2470.133,2019-11-16T13:02:52Z
2019-11-16T11:05:27Z,42.805,6.029,13.2999,4.60003,2470.133,2019-11-16T13:05:55Z
2019-11-16T11:08:30Z,42.805,6.029,13.3002,4.60006,2470.171,2019-11-16T13:08:58Z
2019-11-16T11:11:34Z,42.805,6.029,13.3015,4.59994,2470.147,2019-11-16T13:12:02Z
2019-11-16T11:14:37Z,42.805,6.029,13.3000,4.59983,2470.133,2019-11-16T13:15:05Z
2019-11-16T11:17:40Z,42.805,6.029,13.2995,4.59994,2470.147,2019-11-16T13:18:08Z
2019-11-16T11:20:43Z,42.805,6.029,13.2991,4.59987,2470.124,2019-11-16T13:21:11Z
2019-11-16T11:23:46Z,42.805,6.029,13.2992,4.59988,2470.124,2019-11-16T13:24:14Z
2019-11-16T11:26:50Z,42.805,6.029,13.2993,4.59996,2470.147,2019-11-16T13:27:18Z
2019-11-16T11:29:53Z,42.805,6.029,13.2996,4.59991,2470.124,2019-11-16T13:30:21Z
2019-11-16T11:32:56Z,42.805,6.029,13.2986,4.59997,2470.133,2019-11-16T13:33:24Z
2019-11-16T11:35:59Z,42.805,6.029,13.2999,4.59990,2470.087,2019-11-16T13:36:27Z
2019-11-16T11:39:03Z,42.805,6.029,13.2999,4.59999,2470.11,2019-11-16T13:39:30Z
2019-11-16T11:42:06Z,42.805,6.029,13.2999,4.60004,2470.1,2019-11-16T13:42:34Z
2019-11-16T11:45:09Z,42.805,6.029,13.3006,4.60001,2470.124,2019-11-16T13:45:37Z
2019-11-16T11:48:12Z,42.805,6.029,13.3000,4.59999,2470.11,2019-11-16T13:48:40Z
2019-11-16T11:51:16Z,42.805,6.029,13.2993,4.59999,2470.1,2019-11-16T13:51:44Z
2019-11-16T11:54:19Z,42.805,6.029,13.3011,4.59991,2470.087,2019-11-16T13:54:47Z
2019-11-16T11:57:22Z,42.805,6.029,13.3015,4.59999,2470.11,2019-11-16T13:57:50Z
2019-11-16T12:00:26Z,42.805,6.029,13.3005,4.59994,2470.063,2019-11-16T14:00:53Z
2019-11-16T12:03:29Z,42.805,6.029,13.2996,4.59986,2470.087,2019-11-16T14:03:57Z
2019-11-16T12:06:32Z,42.805,6.029,13.3003,4.60007,2470.087,2019-11-16T14:07:00Z
2019-11-16T12:09:35Z,42.805,6.029,13.3002,4.59995,2470.087,2019-11-16T14:10:03Z
2019-11-16T12:12:38Z,42.805,6.029,13.3017,4.59996,2470.1,2019-11-16T14:13:06Z
2019-11-16T12:15:42Z,42.805,6.029,13.3005,4.60011,2470.11,2019-11-16T14:16:09Z
2019-11-16T12:18:45Z,42.805,6.029,13.2994,4.59993,2470.087,2019-11-16T14:19:13Z
2019-11-16T12:21:48Z,42.805,6.029,13.3013,4.60003,2470.11,2019-11-16T14:22:16Z
2019-11-16T12:24:51Z,42.805,6.029,13.3005,4.59994,2470.063,2019-11-16T14:25:19Z
2019-11-16T12:27:55Z,42.805,6.029,13.3004,4.59996,2470.053,2019-11-16T14:28:22Z
2019-11-16T12:30:58Z,42.805,6.029,13.3000,4.60001,2470.087,2019-11-16T14:31:26Z
2019-11-16T12:34:01Z,42.805,6.029,13.3012,4.60013,2470.087,2019-11-16T14:34:29Z
2019-11-16T12:37:04Z,42.805,6.029,13.2987,4.60003,2470.1,2019-11-16T14:37:32Z
2019-11-16T12:40:08Z,42.805,6.029,13.3003,4.60005,2470.063,2019-11-16T14:40:35Z
2019-11-16T12:43:11Z,42.805,6.029,13.3022,4.60000,2470.063,2019-11-16T14:43:39Z
2019-11-16T12:46:14Z,42.805,6.029,13.3003,4.59999,2470.053,2019-11-16T14:46:42Z
2019-11-16T12:49:17Z,42.805,6.029,13.3002,4.59994,2470.077,2019-11-16T14:49:45Z
2019-11-16T12:52:21Z,42.805,6.029,13.3000,4.60009,2470.077,2019-11-16T14:52:48Z
2019-11-16T12:55:24Z,42.805,6.029,13.2998,4.59994,2470.077,2019-11-16T14:55:52Z
2019-11-16T12:58:27Z,42.805,6.029,13.3011,4.59996,2470.077,2019-11-16T14:58:55Z
2019-11-16T13:01:30Z,42.805,6.029,13.3008,4.60012,2470.053,2019-11-16T15:01:58Z
2019-11-16T13:04:33Z,42.805,6.029,13.3007,4.59993,2470.04,2019-11-16T15:05:01Z
2019-11-16T13:07:37Z,42.805,6.029,13.2997,4.59999,2470.053,2019-11-16T15:08:04Z
2019-11-16T13:10:40Z,42.805,6.029,13.3011,4.60009,2470.04,2019-11-16T15:11:08Z
2019-11-16T13:13:43Z,42.805,6.029,13.3000,4.60001,2470.03,2019-11-16T15:14:11Z
2019-11-16T13:16:46Z,42.805,6.029,13.2998,4.59988,2470.053,2019-11-16T15:17:14Z
2019-11-16T13:19:49Z,42.805,6.029,13.2991,4.59985,2470.017,2019-11-16T15:20:17Z
2019-11-16T13:22:53Z,42.805,6.029,13.3014,4.59992,2469.993,2019-11-16T15:23:21Z
2019-11-16T13:25:56Z,42.805,6.029,13.2999,4.59981,2470.03,2019-11-16T15:26:24Z
2019-11-16T13:28:59Z,42.805,6.029,13.2993,4.59984,2470.053,2019-11-16T15:29:27Z
2019-11-16T13:32:02Z,42.805,6.029,13.3007,4.59997,2470.017,2019-11-16T15:32:30Z
2019-11-16T13:35:06Z,42.805,6.029,13.3009,4.60001,2470.077,2019-11-16T15:35:34Z
2019-11-16T13:38:09Z,42.805,6.029,13.3022,4.60003,2470.053,2019-11-16T15:38:37Z
2019-11-16T13:41:12Z,42.805,6.029,13.2985,4.60002,2470.007,2019-11-16T15:41:40Z
2019-11-16T13:44:15Z,42.805,6.029,13.2987,4.60009,2470.04,2019-11-16T15:44:43Z
2019-11-16T13:47:19Z,42.805,6.029,13.3019,4.60011,2470.017,2019-11-16T15:47:46Z
2019-11-16T13:50:22Z,42.805,6.029,13.3015,4.60015,2470.017,2019-11-16T15:50:50Z
2019-11-16T13:53:25Z,42.805,6.029,13.3020,4.60019,2470.04,2019-11-16T15:53:53Z
2019-11-16T13:56:28Z,42.805,6.029,13.2992,4.59999,2470.007,2019-11-16T15:56:56Z
2019-11-16T13:59:32Z,42.805,6.029,13.2971,4.60015,2470.04,2019-11-16T15:59:59Z
2019-11-16T14:02:35Z,42.805,6.029,13.2967,4.60005,2470.017,2019-11-16T16:03:03Z
2019-11-16T14:05:38Z,42.805,6.029,13.2977,4.59986,2469.993,2019-11-16T16:06:06Z
2019-11-16T14:08:41Z,42.805,6.029,13.2973,4.60014,2470.017,2019-11-16T16:09:09Z
2019-11-16T14:11:45Z,42.805,6.029,13.2978,4.59996,2470.007,2019-11-16T16:12:12Z
2019-11-16T14:14:48Z,42.805,6.029,13.2974,4.60009,2469.979,2019-11-16T16:15:16Z
2019-11-16T14:17:51Z,42.805,6.029,13.2959,4.59993,2470.017,2019-11-16T16:18:19Z
2019-11-16T14:20:54Z,42.805,6.029,13.2961,4.59976,2470.053,2019-11-16T16:21:22Z
2019-11-16T14:23:58Z,42.805,6.029,13.2959,4.59969,2470.03,2019-11-16T16:24:25Z
2019-11-16T14:27:01Z,42.805,6.029,13.2960,4.59972,2469.993,2019-11-16T16:27:29Z
2019-11-16T14:30:04Z,42.805,6.029,13.2961,4.59970,2470.03,2019-11-16T16:30:32Z
2019-11-16T14:33:07Z,42.805,6.029,13.2962,4.59969,2470.007,2019-11-16T16:33:35Z
2019-11-16T14:36:10Z,42.805,6.029,13.2963,4.59972,2469.97,2019-11-16T16:36:38Z
2019-11-16T14:39:14Z,42.805,6.029,13.2959,4.59972,2470.017,2019-11-16T16:39:42Z
2019-11-16T14:42:17Z,42.805,6.029,13.2956,4.59966,2470.017,2019-11-16T16:42:45Z
2019-11-16T14:45:20Z,42.805,6.029,13.2961,4.59964,2470.017,2019-11-16T16:45:48Z
2019-11-16T14:48:23Z,42.805,6.029,13.2961,4.59964,2470.007,2019-11-16T16:48:51Z
2019-11-16T14:51:27Z,42.805,6.029,13.2961,4.59965,2469.984,2019-11-16T16:51:55Z
2019-11-16T14:54:30Z,42.805,6.029,13.2959,4.59964,2470.017,2019-11-16T16:54:58Z
2019-11-16T14:57:33Z,42.805,6.029,13.2962,4.59964,2470.007,2019-11-16T16:58:01Z
2019-11-16T15:00:36Z,42.805,6.029,13.2964,4.59964,2469.993,2019-11-16T17:01:04Z
2019-11-16T15:03:40Z,42.805,6.029,13.2961,4.59969,2469.993,2019-11-16T17:04:07Z